Time,TemperatureF,DewpointF,PressureIn,WindDirection,WindDirectionDegrees,WindSpeedMPH,WindSpeedGustMPH,Humidity,HourlyPrecipIn,Conditions,Clouds,dailyrainin,SoftwareType,DateUTC
2013-07-21 00:11:00,67.0,64.0,-100.00,West,270,0.0,1.0,90,0.00,,,-99.99,,2013-07-21 05:11:00,
2013-07-21 00:32:00,67.0,64.0,-100.00,SW,235,1.0,1.0,91,0.00,,,-99.99,,2013-07-21 05:32:00,
2013-07-21 00:42:00,67.0,65.0,-100.00,WSW,255,2.0,2.0,92,0.23,,,-99.99,,2013-07-21 05:42:00,
2013-07-21 00:52:00,67.0,65.0,-100.00,SW,220,2.0,2.0,92,0.40,,,-99.99,,2013-07-21 05:52:00,
2013-07-21 01:22:00,67.0,65.0,-100.00,SSW,195,1.0,2.0,92,0.00,,,-99.99,,2013-07-21 06:22:00,
2013-07-21 01:32:00,67.0,65.0,-100.00,SSW,195,1.0,2.0,92,0.00,,,-99.99,,2013-07-21 06:32:00,
2013-07-21 01:42:00,67.0,65.0,-100.00,NNE,25,0.0,1.0,92,0.00,,,-99.99,,2013-07-21 06:42:00,
2013-07-21 01:52:00,67.0,65.0,-100.00,NNE,25,0.0,1.0,92,0.00,,,-99.99,,2013-07-21 06:52:00,
2013-07-21 02:11:00,67.0,65.0,-100.00,ENE,65,0.0,0.0,92,0.34,,,-99.99,,2013-07-21 07:11:00,
2013-07-21 02:22:00,67.0,65.0,-100.00,SE,130,0.0,0.0,92,0.28,,,-99.99,,2013-07-21 07:22:00,
2013-07-21 02:32:00,67.0,65.0,-100.00,SE,130,0.0,0.0,92,0.28,,,-99.99,,2013-07-21 07:32:00,
2013-07-21 02:43:00,67.0,64.0,-100.00,ESE,120,2.0,2.0,92,0.00,,,-99.99,,2013-07-21 07:43:00,
2013-07-21 02:52:00,66.0,64.0,-100.00,ESE,120,4.0,4.0,92,0.00,,,-99.99,,2013-07-21 07:52:00,
2013-07-21 03:11:00,66.0,64.0,-100.00,SE,145,1.0,3.0,92,0.00,,,-99.99,,2013-07-21 08:11:00,
2013-07-21 03:33:00,65.0,63.0,-100.00,WNW,285,0.0,0.0,92,0.00,,,-99.99,,2013-07-21 08:33:00,
2013-07-21 03:43:00,66.0,63.0,-100.00,WNW,290,3.0,4.0,92,0.00,,,-99.99,,2013-07-21 08:43:00,
2013-07-21 03:52:00,66.0,64.0,-100.00,NNW,330,3.0,4.0,92,0.00,,,-99.99,,2013-07-21 08:52:00,
2013-07-21 04:32:00,66.0,64.0,-100.00,SW,215,0.0,2.0,92,0.00,,,-99.99,,2013-07-21 09:32:00,
2013-07-21 04:42:00,66.0,64.0,-100.00,SSE,155,2.0,2.0,92,0.00,,,-99.99,,2013-07-21 09:42:00,
2013-07-21 04:52:00,66.0,64.0,-100.00,ESE,120,1.0,1.0,92,0.00,,,-99.99,,2013-07-21 09:52:00,
2013-07-21 05:11:00,65.0,63.0,-100.00,ENE,75,4.0,4.0,92,0.00,,,-99.99,,2013-07-21 10:11:00,
2013-07-21 05:32:00,65.0,63.0,-100.00,East,85,3.0,4.0,92,0.00,,,-99.99,,2013-07-21 10:32:00,
2013-07-21 05:43:00,65.0,63.0,-100.00,ESE,115,2.0,3.0,92,0.00,,,-99.99,,2013-07-21 10:43:00,
2013-07-21 05:52:00,65.0,63.0,-100.00,ESE,110,3.0,4.0,92,0.00,,,-99.99,,2013-07-21 10:52:00,
2013-07-21 06:32:00,65.0,63.0,-100.00,NE,35,1.0,2.0,93,0.00,,,-99.99,,2013-07-21 11:32:00,
2013-07-21 06:43:00,65.0,63.0,-100.00,East,85,1.0,4.0,93,0.00,,,-99.99,,2013-07-21 11:43:00,
2013-07-21 06:52:00,65.0,63.0,-100.00,West,260,2.0,2.0,93,0.00,,,-99.99,,2013-07-21 11:52:00,
2013-07-21 07:01:00,65.0,63.0,-100.00,WNW,300,2.0,3.0,93,0.00,,,-99.99,,2013-07-21 12:01:00,
2013-07-21 07:32:00,66.0,64.0,-100.00,SE,130,0.0,2.0,93,0.37,,,-99.99,,2013-07-21 12:32:00,
2013-07-21 07:43:00,66.0,64.0,-100.00,SE,135,4.0,6.0,93,0.00,,,-99.99,,2013-07-21 12:43:00,
2013-07-21 07:53:00,67.0,65.0,-100.00,South,175,5.0,7.0,93,0.34,,,-99.99,,2013-07-21 12:53:00,
2013-07-21 08:12:00,67.0,65.0,-100.00,South,175,3.0,4.0,93,0.35,,,-99.99,,2013-07-21 13:12:00,
2013-07-21 08:32:00,67.0,65.0,-100.00,SW,225,5.0,6.0,93,0.43,,,-99.99,,2013-07-21 13:32:00,
2013-07-21 08:42:00,68.0,66.0,-100.00,SSW,200,7.0,10.0,93,0.43,,,-99.99,,2013-07-21 13:42:00,
2013-07-21 08:52:00,68.0,66.0,-100.00,SW,235,7.0,9.0,93,0.34,,,-99.99,,2013-07-21 13:52:00,
2013-07-21 09:32:00,66.0,64.0,-100.00,SSE,155,8.0,11.0,93,0.33,,,-99.99,,2013-07-21 14:32:00,
2013-07-21 09:43:00,67.0,65.0,-100.00,ENE,60,3.0,7.0,93,0.00,,,-99.99,,2013-07-21 14:43:00,
2013-07-21 09:53:00,68.0,66.0,-100.00,ESE,110,7.0,10.0,93,0.00,,,-99.99,,2013-07-21 14:53:00,
2013-07-21 10:11:00,72.0,69.0,-100.00,East,90,6.0,9.0,90,0.00,,,-99.99,,2013-07-21 15:11:00,
2013-07-21 10:32:00,73.0,67.0,-100.00,East,90,7.0,9.0,82,0.00,,,-99.99,,2013-07-21 15:32:00,
2013-07-21 10:43:00,76.0,65.0,-100.00,East,100,4.0,7.0,69,0.00,,,-99.99,,2013-07-21 15:43:00,
2013-07-21 10:53:00,78.0,65.0,-100.00,ESE,115,6.0,9.0,64,0.00,,,-99.99,,2013-07-21 15:53:00,
2013-07-21 11:11:00,76.0,63.0,-100.00,SE,130,5.0,11.0,63,0.00,,,-99.99,,2013-07-21 16:11:00,
2013-07-21 11:32:00,76.0,63.0,-100.00,SE,130,6.0,9.0,64,0.00,,,-99.99,,2013-07-21 16:32:00,
2013-07-21 11:43:00,77.0,65.0,-100.00,SE,125,5.0,7.0,66,0.00,,,-99.99,,2013-07-21 16:43:00,
2013-07-21 11:52:00,77.0,65.0,-100.00,ESE,115,6.0,9.0,67,0.00,,,-99.99,,2013-07-21 16:52:00,
2013-07-21 12:02:00,77.0,65.0,-100.00,ESE,115,6.0,9.0,67,0.00,,,-99.99,,2013-07-21 17:02:00,
2013-07-21 12:11:00,78.0,65.0,-100.00,SE,130,7.0,9.0,65,0.00,,,-99.99,,2013-07-21 17:11:00,
2013-07-21 12:33:00,79.0,65.0,-100.00,ESE,115,9.0,10.0,62,0.00,,,-99.99,,2013-07-21 17:33:00,
2013-07-21 12:43:00,80.0,65.0,-100.00,ESE,105,6.0,9.0,61,0.00,,,-99.99,,2013-07-21 17:43:00,
2013-07-21 12:53:00,80.0,65.0,-100.00,SE,125,5.0,7.0,61,0.00,,,-99.99,,2013-07-21 17:53:00,
2013-07-21 13:11:00,81.0,66.0,-100.00,ESE,115,3.0,7.0,61,0.00,,,-99.99,,2013-07-21 18:11:00,
2013-07-21 13:32:00,83.0,66.0,-100.00,ESE,110,4.0,7.0,57,0.00,,,-99.99,,2013-07-21 18:32:00,
2013-07-21 13:43:00,83.0,67.0,-100.00,SSE,155,4.0,10.0,57,0.00,,,-99.99,,2013-07-21 18:43:00,
2013-07-21 13:52:00,83.0,66.0,-100.00,SSE,160,4.0,9.0,57,0.00,,,-99.99,,2013-07-21 18:52:00,
2013-07-21 14:32:00,83.0,66.0,-100.00,SE,130,7.0,10.0,57,0.00,,,-99.99,,2013-07-21 19:32:00,
2013-07-21 14:42:00,84.0,68.0,-100.00,ESE,115,4.0,12.0,59,0.00,,,-99.99,,2013-07-21 19:42:00,
2013-07-21 14:52:00,84.0,68.0,-100.00,SE,125,6.0,10.0,59,0.00,,,-99.99,,2013-07-21 19:52:00,
2013-07-21 15:01:00,85.0,69.0,-100.00,SE,130,5.0,11.0,57,0.00,,,-99.99,,2013-07-21 20:01:00,
2013-07-21 15:11:00,84.0,67.0,-100.00,East,90,6.0,9.0,57,0.00,,,-99.99,,2013-07-21 20:11:00,
2013-07-21 15:32:00,85.0,68.0,-100.00,ESE,105,5.0,9.0,57,0.00,,,-99.99,,2013-07-21 20:32:00,
2013-07-21 15:42:00,84.0,68.0,-100.00,East,90,7.0,8.0,58,0.00,,,-99.99,,2013-07-21 20:42:00,
2013-07-21 16:11:00,82.0,67.0,-100.00,ESE,105,7.0,12.0,61,0.00,,,-99.99,,2013-07-21 21:11:00,
2013-07-21 16:32:00,79.0,66.0,-100.00,SE,145,14.0,21.0,63,0.00,,,-99.99,,2013-07-21 21:32:00,
2013-07-21 16:43:00,81.0,68.0,-100.00,SE,140,12.0,16.0,63,0.00,,,-99.99,,2013-07-21 21:43:00,
2013-07-21 16:52:00,82.0,69.0,-100.00,SE,140,9.0,16.0,63,0.00,,,-99.99,,2013-07-21 21:52:00,
2013-07-21 17:11:00,83.0,68.0,-100.00,South,170,11.0,17.0,60,0.00,,,-99.99,,2013-07-21 22:11:00,
2013-07-21 17:32:00,83.0,67.0,-100.00,SSE,160,11.0,14.0,59,0.00,,,-99.99,,2013-07-21 22:32:00,
2013-07-21 17:42:00,83.0,68.0,-100.00,SSE,150,9.0,14.0,59,0.00,,,-99.99,,2013-07-21 22:42:00,
2013-07-21 17:52:00,83.0,67.0,-100.00,SE,135,9.0,14.0,59,0.00,,,-99.99,,2013-07-21 22:52:00,
2013-07-21 18:01:00,83.0,67.0,-100.00,SSE,150,9.0,12.0,59,0.00,,,-99.99,,2013-07-21 23:01:00,
2013-07-21 18:32:00,83.0,68.0,-100.00,SSE,165,11.0,13.0,59,0.00,,,-99.99,,2013-07-21 23:32:00,
2013-07-21 18:42:00,81.0,69.0,-100.00,SE,145,9.0,16.0,66,0.00,,,-99.99,,2013-07-21 23:42:00,
2013-07-21 18:52:00,82.0,70.0,-100.00,SSE,155,10.0,14.0,67,0.00,,,-99.99,,2013-07-21 23:52:00,
2013-07-21 19:11:00,81.0,70.0,-100.00,SE,145,10.0,14.0,69,0.00,,,-99.99,,2013-07-22 00:11:00,
2013-07-21 19:32:00,81.0,70.0,-100.00,SSE,160,11.0,14.0,70,0.00,,,-99.99,,2013-07-22 00:32:00,
2013-07-21 19:42:00,80.0,70.0,-100.00,SSE,165,9.0,14.0,70,0.00,,,-99.99,,2013-07-22 00:42:00,
2013-07-21 19:52:00,80.0,70.0,-100.00,SSE,165,8.0,12.0,71,0.00,,,-99.99,,2013-07-22 00:52:00,
2013-07-21 20:11:00,79.0,70.0,-100.00,SSE,150,7.0,9.0,72,0.00,,,-99.99,,2013-07-22 01:11:00,
2013-07-21 20:32:00,79.0,70.0,-100.00,SSE,150,7.0,9.0,75,0.00,,,-99.99,,2013-07-22 01:32:00,
2013-07-21 20:42:00,77.0,71.0,-100.00,SSE,150,5.0,7.0,80,0.00,,,-99.99,,2013-07-22 01:42:00,
2013-07-21 21:11:00,74.0,71.0,-100.00,SE,145,4.0,6.0,88,0.00,,,-99.99,,2013-07-22 02:11:00,
2013-07-21 21:32:00,73.0,70.0,-100.00,South,170,4.0,6.0,89,0.00,,,-99.99,,2013-07-22 02:32:00,
2013-07-21 21:43:00,72.0,69.0,-100.00,SSE,150,3.0,4.0,90,0.00,,,-99.99,,2013-07-22 02:43:00,
2013-07-21 21:52:00,72.0,69.0,-100.00,South,170,4.0,5.0,91,0.00,,,-99.99,,2013-07-22 02:52:00,
2013-07-21 22:33:00,71.0,68.0,-100.00,SE,140,3.0,6.0,92,0.00,,,-99.99,,2013-07-22 03:33:00,
2013-07-21 22:43:00,70.0,68.0,-100.00,SSE,155,6.0,7.0,92,0.00,,,-99.99,,2013-07-22 03:43:00,
2013-07-21 22:53:00,70.0,68.0,-100.00,SSE,160,7.0,8.0,92,0.00,,,-99.99,,2013-07-22 03:53:00,
2013-07-21 23:12:00,69.0,67.0,-100.00,SSE,165,6.0,7.0,92,0.00,,,-99.99,,2013-07-22 04:12:00,
2013-07-21 23:33:00,69.0,67.0,-100.00,SSE,160,6.0,8.0,92,0.00,,,-99.99,,2013-07-22 04:33:00,
2013-07-21 23:43:00,68.0,66.0,-100.00,ESE,115,4.0,5.0,92,0.00,,,-99.99,,2013-07-22 04:43:00,